Wind_Speed
16 15 13 10 8 6 5 3 3 4 4 5 7 7 9 9 10 11 12 12 13 13 13 14 14 14 14 13 13 13 12 11 10 9 8 8 7 6 6 6 6 6 5 5
19 17 14 12 11 8 6 4 4 5 6 5 5 7 7 7 8 10 11 11 11 11 11 12 13 13 13 12 12 12 12 11 10 9 9 7 7 6 6 6 6 5 5 5
19 17 17 15 12 9 7 6 6 6 7 5 5 7 7 5 7 8 9 9 9 9 10 10 11 11 11 12 12 11 11 10 10 9 8 7 6 6 5 5 5 5 5 4
20 20 19 17 14 11 9 8 8 9 11 8 6 7 6 5 5 6 7 7 8 8 8 9 9 9 10 10 10 11 11 10 10 9 8 7 7 6 5 5 5 5 5 5
22 21 20 19 15 13 11 11 11 10 11 10 7 8 7 6 5 6 7 6 5 6 7 7 7 7 8 9 9 9 9 9 9 8 8 7 6 6 5 5 5 5 5 5
23 22 21 19 17 15 14 14 14 12 12 12 9 10 9 7 6 6 6 6 5 5 6 6 6 5 6 6 7 8 8 8 8 7 7 6 6 5 5 4 4 4 4 4
25 24 23 21 21 19 17 17 17 16 15 14 11 12 11 9 7 5 5 5 4 4 5 5 5 5 4 5 6 6 6 6 6 6 6 5 4 4 4 3 3 3 3 3
26 25 24 22 22 21 19 19 19 19 18 14 13 13 10 10 8 6 6 5 4 3 4 5 5 5 4 5 4 4 4 4 5 5 4 4 3 3 2 1 1 1 1 1
26 24 23 22 22 22 22 22 20 20 20 18 16 14 12 11 10 10 10 8 6 5 4 4 5 5 5 5 5 4 5 5 4 4 4 3 3 2 2 1 1 1 1 2
26 25 24 24 24 24 23 23 22 22 21 21 19 17 15 12 11 11 12 10 7 6 5 5 5 5 6 6 6 5 5 5 5 5 4 3 3 4 3 3 3 3 3 4
29 28 26 26 27 26 26 25 25 23 22 22 22 19 16 13 12 12 11 10 9 8 7 6 6 6 7 7 7 7 6 6 6 6 6 5 5 5 5 4 4 5 5 6
29 29 29 28 27 26 26 27 25 25 25 25 25 21 17 16 13 13 12 11 8 8 9 8 8 8 8 9 9 9 9 9 8 7 7 6 6 7 7 7 6 7 8 8
29 30 29 29 28 28 27 26 26 27 27 26 26 23 20 19 17 15 14 12 10 10 11 10 10 9 11 11 11 11 11 11 10 10 9 9 8 9 9 9 9 10 11 11
29 31 31 31 29 27 27 27 28 28 28 27 26 23 21 21 18 17 16 14 14 13 13 12 12 12 12 13 14 13 13 13 12 12 12 12 11 11 12 11 12 12 13 13
31 31 31 31 30 29 29 29 28 27 28 28 27 25 22 21 19 18 17 16 16 15 15 14 14 15 15 14 14 14 14 14 14 14 15 14 14 14 14 14 14 15 15 16
32 33 32 32 31 30 29 29 27 26 27 28 27 26 24 22 21 21 20 19 18 17 16 16 17 17 16 16 15 16 16 16 16 16 16 16 16 16 16 16 16 17 17 17
32 33 33 33 32 32 32 30 29 29 28 27 28 27 25 26 24 23 23 22 20 19 18 17 18 19 18 17 17 17 18 18 18 18 18 18 19 19 20 20 20 20 19 19
31 32 33 33 33 34 30 30 30 30 29 29 28 27 26 25 26 24 24 25 23 22 21 20 20 19 18 19 20 20 19 20 21 21 21 21 22 23 23 23 23 23 23 22
32 32 32 32 33 34 32 30 29 30 31 30 28 28 28 26 26 26 25 25 25 25 23 23 23 22 21 22 22 22 22 22 22 22 23 24 24 25 25 25 25 25 25 25
31 32 32 33 33 33 32 31 31 31 32 30 29 29 28 28 28 27 25 25 25 24 24 24 23 23 23 24 24 23 24 24 25 25 26 27 27 27 27 27 28 28 28 28
32 32 33 33 33 33 31 32 31 32 32 31 31 30 29 29 28 27 26 26 25 25 25 26 25 24 24 25 25 26 26 26 27 27 27 28 28 28 28 29 29 30 30 31
31 32 32 32 33 32 30 31 31 32 32 31 31 30 29 28 27 26 25 26 26 26 26 26 25 25 25 25 26 26 27 28 28 28 28 29 29 30 30 30 30 31 32 33
32 31 31 31 31 30 30 30 30 31 32 31 29 29 27 26 26 26 26 26 26 27 27 28 28 27 27 28 28 27 27 28 29 30 30 30 31 31 31 31 32 33 33 34
30 30 30 30 30 30 30 29 30 31 31 30 29 29 27 27 26 25 26 26 26 27 29 29 29 28 29 30 30 29 29 29 29 30 31 32 32 32 33 33 34 34 34 34
29 29 29 29 29 30 29 29 29 29 30 30 28 27 27 26 25 25 25 26 27 28 28 28 29 29 30 30 30 30 30 30 31 31 32 33 34 34 34 34 34 34 35 35
29 27 28 29 29 30 30 30 29 28 28 28 29 29 28 26 25 24 25 26 27 28 29 29 29 30 30 30 31 32 32 32 32 32 33 34 34 34 34 35 35 35 36 36
Wind_Direction
204 201 192 181 186 189 194 205 260 314 323 336 344 357 7 28 35 37 37 37 39 42 45 45 48 51 53 54 55 55 61 66 72 77 82 86 90 96 97 98 105 108 107 115
209 205 191 185 187 199 212 243 262 274 277 289 314 332 350 20 27 33 36 39 40 42 44 44 44 49 53 54 55 54 58 65 72 78 81 82 84 92 101 102 102 105 109 115
214 204 196 197 200 205 211 249 249 259 262 260 296 312 321 346 14 21 22 30 36 41 45 43 41 42 47 53 55 57 59 62 69 76 80 82 85 89 97 103 107 107 102 98
213 205 204 204 205 210 221 238 240 265 267 269 278 292 303 320 347 10 15 24 28 35 43 41 37 37 40 44 48 53 57 58 60 65 71 74 79 87 96 102 106 107 104 98
214 208 210 212 210 216 224 242 252 262 270 265 267 279 297 288 317 345 359 6 17 28 32 34 32 34 37 39 42 47 52 55 56 59 65 69 73 79 92 100 102 103 103 100
213 210 213 216 215 218 223 238 252 258 269 263 264 277 290 288 301 325 339 345 354 10 21 21 21 23 29 29 32 40 45 46 48 51 57 63 68 75 85 97 103 100 95 92
213 213 216 217 216 220 223 233 244 251 261 268 266 269 280 283 282 291 312 327 329 352 7 1 1 5 7 10 16 29 34 36 38 41 49 56 64 67 75 90 92 92 89 92
217 215 217 221 222 223 226 231 238 248 256 263 272 279 288 277 266 275 287 303 303 308 351 350 348 348 345 343 350 360 7 11 17 27 34 35 48 55 55 62 108 96 81 70
223 219 217 221 224 225 228 231 236 248 255 260 267 273 276 281 273 276 287 297 286 276 302 319 331 331 327 319 318 322 331 339 345 356 2 7 10 8 357 327 276 240 262 277
223 221 219 221 224 227 230 232 238 241 249 256 261 267 271 278 278 274 274 277 267 272 286 287 295 297 305 308 306 302 306 310 317 323 324 327 329 328 326 312 290 265 269 283
222 223 220 222 224 227 229 230 234 239 243 251 259 260 266 271 273 274 276 273 268 282 279 272 272 278 287 288 290 294 295 295 300 303 302 301 302 304 306 308 295 279 275 276
222 223 223 223 226 228 231 232 235 239 243 249 255 255 258 263 269 270 278 273 262 262 266 264 266 275 275 280 285 287 291 292 291 291 290 291 291 294 293 288 287 284 275 271
220 223 225 224 226 228 228 227 233 238 242 246 252 254 257 263 264 265 266 267 264 264 268 266 265 272 271 271 275 275 279 280 282 284 286 284 283 287 286 285 283 283 281 277
223 226 227 228 228 232 231 231 231 235 238 244 250 257 258 259 262 264 263 263 266 268 269 269 268 273 275 270 268 272 277 277 279 282 284 283 283 283 283 283 284 283 284 282
226 228 229 230 230 233 234 233 233 237 239 245 251 256 262 261 263 264 261 260 262 269 267 269 273 276 274 272 268 271 274 275 277 278 278 279 280 280 281 283 281 281 280 281
228 230 231 231 231 234 235 236 238 240 240 244 249 254 257 259 262 264 260 260 263 264 265 266 268 272 271 271 268 269 269 272 273 273 274 273 275 278 281 282 282 283 282 281
230 231 233 234 233 234 235 236 239 240 242 245 248 252 255 256 259 264 262 261 262 259 260 262 266 270 268 271 273 275 272 272 274 274 274 274 275 276 277 278 279 280 282 283
231 233 236 236 233 234 235 235 237 238 241 242 246 251 253 255 257 259 261 262 260 258 258 261 263 265 268 272 274 275 276 274 275 276 275 276 275 276 276 276 277 278 278 277
234 235 237 237 235 235 234 235 238 239 239 241 244 248 251 254 255 257 261 260 259 258 260 261 264 265 266 269 272 274 275 275 276 277 277 275 274 275 277 277 278 278 277 276
232 233 234 235 238 237 235 236 238 242 243 242 244 246 250 253 254 256 257 259 258 258 261 261 263 265 267 268 270 272 274 275 277 278 278 276 276 275 276 276 275 276 277 277
232 232 234 235 237 238 238 236 238 242 246 246 246 247 250 253 255 257 257 257 257 258 261 262 262 263 266 268 269 271 273 274 276 278 278 279 278 277 277 276 276 277 278 278
232 234 235 235 236 238 238 237 239 243 246 248 249 248 249 253 257 260 256 255 258 258 261 262 262 266 267 269 270 271 272 273 275 276 276 277 279 278 278 278 277 277 277 278
231 234 235 236 240 242 240 239 239 241 244 247 249 253 255 258 258 258 258 257 255 257 260 263 266 268 269 270 272 272 273 274 275 275 276 277 279 280 279 278 278 277 277 277
230 233 236 238 241 242 242 241 241 241 244 248 250 252 256 258 256 257 258 259 259 259 261 263 265 268 271 272 272 274 274 275 275 276 276 277 278 280 281 280 279 278 278 278
232 233 236 240 241 242 243 242 242 243 246 247 249 252 254 255 257 260 263 262 262 263 263 264 267 268 270 271 273 274 275 276 276 276 277 277 279 280 280 281 280 279 278 278
231 235 236 239 243 246 247 246 245 245 246 249 252 256 255 257 259 259 261 262 263 265 265 267 267 269 271 271 273 274 274 274 275 275 277 278 279 281 281 280 280 279 281 281
Height
5909 5911 5912 5914 5915 5916 5916 5917 5918 5918 5917 5916 5915 5915 5916 5915 5914 5912 5910 5909 5908 5906 5904 5902 5900 5898 5896 5895 5893 5892 5891 5890 5889 5889 5888 5888 5888 5888 5888 5888 5888 5889 5889 5889
5906 5909 5911 5912 5912 5913 5914 5915 5916 5917 5916 5915 5915 5915 5915 5914 5914 5913 5911 5910 5909 5907 5906 5904 5902 5900 5899 5897 5896 5894 5893 5892 5891 5891 5890 5890 5889 5889 5889 5889 5890 5890 5890 5890
5903 5908 5908 5909 5910 5911 5912 5914 5915 5915 5914 5914 5914 5914 5914 5914 5913 5913 5912 5910 5909 5908 5906 5905 5904 5902 5901 5899 5898 5896 5895 5894 5893 5892 5892 5891 5891 5891 5891 5891 5891 5891 5890 5890
5900 5903 5904 5906 5907 5909 5910 5912 5913 5913 5913 5913 5914 5913 5913 5913 5913 5912 5911 5910 5909 5908 5907 5906 5905 5904 5902 5901 5899 5898 5897 5895 5894 5894 5893 5893 5892 5892 5892 5892 5892 5891 5891 5891
5896 5899 5901 5903 5905 5907 5908 5910 5910 5911 5910 5911 5912 5912 5912 5911 5911 5911 5910 5910 5909 5908 5907 5906 5906 5904 5903 5902 5901 5899 5898 5897 5896 5895 5895 5894 5894 5893 5893 5892 5892 5892 5892 5892
5892 5895 5897 5900 5903 5904 5906 5907 5907 5908 5908 5909 5910 5910 5910 5909 5910 5909 5909 5909 5908 5907 5907 5907 5906 5904 5904 5903 5902 5900 5899 5899 5898 5897 5896 5895 5895 5894 5893 5893 5893 5892 5892 5892
5887 5890 5893 5896 5898 5900 5902 5904 5904 5905 5905 5907 5908 5907 5908 5908 5907 5907 5907 5907 5906 5906 5906 5906 5905 5904 5904 5903 5902 5901 5900 5899 5899 5898 5897 5896 5895 5894 5894 5893 5893 5892 5892 5892
5881 5885 5889 5891 5894 5896 5898 5900 5902 5903 5903 5904 5905 5905 5906 5906 5905 5905 5904 5904 5904 5904 5904 5904 5904 5904 5903 5903 5902 5901 5900 5899 5899 5898 5897 5896 5895 5895 5894 5893 5893 5892 5892 5892
5876 5881 5885 5887 5890 5892 5893 5895 5898 5899 5900 5900 5901 5902 5902 5902 5903 5903 5902 5902 5902 5902 5902 5902 5903 5903 5902 5901 5901 5900 5899 5899 5898 5897 5896 5896 5895 5894 5894 5893 5892 5892 5891 5890
5871 5876 5880 5883 5885 5887 5889 5892 5893 5894 5895 5895 5896 5897 5899 5899 5900 5900 5900 5900 5900 5900 5900 5900 5900 5901 5901 5900 5899 5899 5898 5898 5897 5896 5895 5895 5894 5893 5893 5892 5891 5890 5890 5889
5865 5869 5874 5876 5879 5881 5884 5887 5887 5889 5890 5891 5892 5895 5895 5896 5896 5896 5895 5896 5896 5897 5898 5898 5898 5898 5898 5897 5897 5897 5897 5896 5896 5895 5894 5893 5892 5892 5891 5890 5890 5889 5888 5888
5859 5863 5866 5870 5874 5876 5879 5881 5883 5884 5886 5887 5887 5892 5891 5892 5892 5891 5891 5891 5892 5894 5895 5895 5895 5895 5895 5895 5895 5895 5894 5894 5893 5893 5892 5891 5890 5890 5889 5888 5887 5887 5886 5885
5853 5856 5859 5864 5869 5871 5872 5875 5877 5879 5880 5881 5882 5887 5887 5888 5888 5888 5887 5887 5889 5890 5891 5891 5891 5891 5891 5891 5892 5892 5892 5891 5891 5890 5889 5888 5887 5887 5886 5885 5885 5884 5883 5882
5847 5850 5854 5857 5861 5864 5866 5869 5871 5873 5874 5875 5877 5880 5882 5883 5883 5884 5884 5884 5885 5886 5886 5887 5887 5887 5887 5887 5887 5887 5888 5888 5887 5887 5886 5885 5884 5883 5883 5882 5881 5880 5879 5878
5841 5844 5847 5851 5855 5858 5861 5863 5865 5867 5868 5870 5872 5874 5877 5878 5878 5879 5879 5880 5881 5881 5882 5882 5882 5882 5883 5883 5883 5883 5884 5883 5883 5882 5882 5881 5881 5880 5879 5878 5877 5876 5875 5874
5834 5838 5841 5845 5848 5851 5854 5857 5859 5861 5862 5864 5866 5868 5871 5872 5873 5874 5875 5876 5876 5876 5877 5877 5877 5878 5878 5879 5879 5879 5879 5879 5878 5878 5877 5876 5875 5875 5874 5873 5872 5871 5870 5869
5827 5831 5834 5838 5841 5844 5847 5850 5852 5855 5857 5858 5860 5863 5865 5866 5867 5869 5870 5871 5871 5871 5871 5871 5872 5873 5873 5874 5874 5874 5874 5874 5873 5872 5872 5871 5870 5869 5868 5867 5866 5865 5864 5863
5821 5824 5827 5831 5835 5837 5843 5843 5845 5848 5850 5852 5854 5857 5859 5860 5861 5862 5864 5865 5866 5866 5866 5865 5866 5867 5868 5868 5868 5868 5868 5868 5867 5867 5866 5865 5864 5863 5862 5861 5860 5859 5857 5856
5815 5818 5820 5823 5826 5829 5834 5836 5838 5840 5842 5845 5848 5850 5852 5853 5855 5856 5858 5858 5859 5860 5859 5860 5860 5860 5861 5862 5862 5862 5862 5861 5861 5860 5859 5858 5857 5856 5854 5853 5852 5851 5850 5849
5808 5811 5814 5816 5819 5822 5827 5830 5831 5834 5835 5839 5841 5843 5844 5846 5848 5850 5851 5851 5851 5852 5853 5853 5853 5854 5854 5855 5855 5855 5855 5854 5853 5853 5852 5851 5849 5848 5847 5845 5844 5843 5842 5841
5801 5804 5807 5809 5812 5815 5819 5822 5824 5827 5829 5832 5833 5835 5836 5838 5840 5842 5843 5844 5844 5845 5846 5846 5846 5847 5848 5848 5848 5848 5847 5846 5846 5844 5843 5842 5841 5839 5838 5836 5835 5834 5832 5831
5795 5798 5800 5803 5805 5810 5812 5814 5818 5819 5821 5824 5825 5826 5828 5830 5832 5833 5834 5836 5837 5838 5839 5840 5840 5840 5841 5841 5840 5840 5839 5838 5837 5836 5835 5833 5832 5830 5828 5827 5826 5824 5823 5821
5788 5791 5794 5797 5801 5803 5805 5807 5809 5810 5813 5815 5817 5819 5821 5822 5824 5826 5827 5829 5829 5831 5832 5833 5833 5833 5833 5832 5832 5831 5830 5829 5828 5827 5826 5824 5823 5821 5819 5817 5816 5814 5812 5811
5782 5785 5788 5790 5793 5795 5797 5800 5802 5804 5806 5808 5810 5812 5814 5815 5816 5818 5820 5821 5822 5823 5824 5824 5824 5824 5824 5824 5823 5822 5821 5820 5819 5818 5816 5815 5813 5811 5809 5807 5805 5803 5802 5800
5776 5779 5781 5784 5785 5788 5790 5792 5794 5796 5799 5801 5803 5805 5807 5808 5808 5810 5812 5813 5814 5815 5815 5816 5815 5816 5815 5814 5813 5812 5811 5810 5809 5808 5806 5805 5803 5801 5799 5797 5794 5792 5790 5788
5769 5772 5774 5777 5779 5781 5783 5785 5787 5789 5791 5793 5795 5797 5799 5800 5801 5802 5803 5805 5806 5806 5806 5806 5806 5806 5806 5805 5804 5803 5801 5800 5799 5798 5796 5795 5792 5790 5788 5786 5784 5781 5779 5777